RH
80 86 99 99 100 100 91 88 86 96 95 78 66 69 100 92 87 82 82 97 60 58 58 50 45 43 39 44 93 63 58 49 46 45 54 79 70 61 65 90 100 100 100 100 98 94 88
68 39 36 48 88 80 100 57 41 45 56 58 52 55 75 88 83 88 78 76 72 62 46 41 42 37 34 38 43 52 54 57 47 49 60 64 71 70 78 89 98 94 93 100 99 100 98
42 30 47 39 46 44 53 57 46 48 59 50 62 59 64 90 100 91 80 75 78 71 55 40 37 35 35 57 53 60 71 59 65 50 54 59 65 73 77 100 100 100 100 100 100 94 68
46 41 44 49 48 45 42 42 48 51 57 56 71 64 57 49 53 66 56 51 63 67 59 45 41 44 48 62 57 89 84 83 65 64 62 65 70 76 84 93 100 100 100 100 100 100 100
54 47 57 51 56 58 68 73 62 44 53 50 61 62 65 50 46 45 45 43 48 50 52 51 45 43 59 66 64 63 100 100 88 78 76 71 69 84 85 90 100 100 100 100 100 100 92
66 72 57 71 59 46 47 46 56 42 44 36 46 49 50 57 45 38 34 37 42 40 43 54 50 52 48 68 100 91 99 100 93 89 92 91 74 80 81 63 59 83 100 100 100 100 95
76 72 99 65 79 66 54 44 50 37 35 27 26 30 31 33 38 35 36 40 33 37 41 48 56 49 60 64 79 79 93 86 90 100 96 96 100 90 88 63 66 94 100 100 100 87 100
56 51 64 61 47 42 43 36 30 28 25 24 23 23 24 27 28 29 30 39 42 31 36 51 49 60 64 72 86 87 94 95 82 99 100 100 100 98 88 99 94 86 87 93 91 74 70
51 36 35 30 29 31 23 26 22 20 23 20 22 23 20 19 22 26 34 28 32 36 30 42 43 49 55 66 96 88 89 90 84 99 100 100 100 100 99 94 99 94 85 91 86 72 59
31 29 23 23 19 15 16 14 15 14 16 14 16 18 18 21 22 21 23 26 25 31 32 33 42 53 48 68 77 100 99 94 86 91 94 100 99 96 88 100 87 93 91 81 74 64 54
24 20 22 17 13 11 13 11 9 8 7 6 8 8 10 13 14 18 24 23 21 26 25 32 42 48 49 57 75 79 88 100 100 94 89 94 86 74 88 94 86 85 71 74 71 55 49
22 20 20 16 14 12 9 7 6 6 6 6 7 6 8 10 12 14 16 17 17 24 21 26 40 49 60 65 63 70 69 80 96 89 78 82 80 87 72 71 73 71 69 65 60 57 55
19 15 15 15 9 8 7 7 8 8 8 8 8 6 6 6 7 9 12 14 16 17 24 26 33 43 48 57 68 70 67 68 86 93 89 74 71 71 69 66 56 59 64 61 63 58 74
10 11 12 10 10 10 10 9 9 9 9 10 9 8 8 8 12 12 9 9 10 14 20 30 41 38 49 58 64 68 66 60 85 100 86 73 72 64 77 72 71 70 58 60 59 74 75
10 13 12 11 11 10 10 9 10 12 13 12 13 12 11 10 13 17 16 14 15 16 20 31 37 42 48 59 54 53 52 59 69 73 67 83 86 93 86 74 72 79 78 93 77 74 52
14 14 13 11 11 11 10 10 12 14 15 13 15 15 15 15 15 17 18 17 21 22 31 34 40 39 56 52 56 52 56 57 56 67 76 92 100 94 76 72 76 88 87 86 73 55 36
14 13 12 12 11 11 11 11 13 14 15 16 18 19 20 19 18 17 17 20 26 35 49 52 39 42 48 58 71 66 61 74 80 85 97 94 94 89 92 87 91 82 73 72 67 49 33
13 13 13 13 12 12 11 12 14 16 17 17 17 35 39 35 36 29 26 30 44 47 83 84 69 83 87 74 67 71 81 87 93 100 92 80 76 88 100 92 71 66 66 57 42 26 25
14 14 15 15 14 13 12 13 15 16 19 19 22 33 37 37 54 41 60 64 77 100 100 100 100 100 100 99 96 90 87 84 88 84 68 56 54 60 62 62 70 79 70 31 23 21 25
16 17 17 17 16 15 14 15 16 17 20 22 23 22 28 36 67 83 84 100 100 100 100 100 100 100 100 96 90 98 93 96 84 59 49 50 53 55 48 54 74 69 39 23 20 18 17
18 17 18 18 18 15 15 14 17 20 21 25 23 25 28 60 74 86 90 94 100 100 100 100 100 100 100 100 100 91 75 79 68 61 58 56 59 49 29 29 36 22 21 18 13 19 18
19 20 20 20 20 16 16 18 21 22 24 25 26 28 32 56 77 97 100 96 98 100 100 100 100 100 100 100 94 98 88 81 79 66 57 52 46 29 26 19 13 15 28 20 16 19 17
20 22 22 21 20 19 19 20 22 24 27 28 25 29 37 52 81 100 100 100 100 100 100 100 100 100 100 100 92 88 90 76 69 49 31 41 24 20 28 21 14 17 17 14 12 13 14
21 24 24 23 22 21 22 23 25 29 31 33 39 45 56 65 78 97 100 100 100 100 100 97 99 95 96 100 96 86 73 61 53 39 30 21 22 23 19 14 11 9 9 8 10 10 12
21 24 25 27 25 25 23 25 29 32 38 44 44 46 61 71 81 97 96 95 96 95 96 98 96 90 88 78 72 72 68 48 31 26 28 26 17 14 11 9 9 8 6 6 7 8 11
22 24 26 28 28 26 25 28 31 35 41 50 54 56 63 70 82 90 85 79 82 87 89 85 88 85 84 66 58 46 37 28 28 27 20 15 13 12 10 7 6 6 6 7 8 8 10
22 26 28 30 30 27 28 31 36 37 44 56 67 67 70 71 78 85 82 89 92 88 86 86 81 77 67 59 42 42 38 22 26 22 14 14 12 10 8 7 7 6 6 6 8 8 11
23 28 30 32 32 29 31 35 39 43 52 60 59 63 75 83 91 95 92 87 86 85 82 80 75 65 55 48 36 31 26 22 23 16 15 14 10 8 8 7 7 7 7 7 8 9 12
26 30 32 33 32 32 34 36 38 48 57 63 67 68 72 84 84 88 92 88 88 93 84 66 57 51 44 37 30 27 20 20 24 18 12 11 10 9 7 7 8 8 8 8 9 10 12
Wind_Speed
84 87 90 86 86 85 85 84 83 85 88 83 85 81 83 80 77 81 82 86 83 84 82 78 76 78 77 73 80 73 74 75 73 71 71 70 69 66 68 68 66 64 67 69 70 70 72
91 88 89 91 92 90 90 92 90 88 91 90 89 86 84 86 85 85 85 85 89 89 88 85 82 83 83 82 82 79 79 78 77 74 74 73 71 70 70 71 69 69 71 76 80 79 77
92 92 92 88 90 95 94 96 95 95 96 97 95 96 87 87 90 92 90 94 90 87 90 87 89 85 83 88 83 82 84 82 81 77 76 76 76 73 71 73 72 74 77 75 78 80 78
97 96 96 96 93 100 100 103 103 98 100 102 97 98 98 95 93 94 94 96 96 91 88 88 88 87 79 90 84 85 84 88 84 79 79 79 77 77 76 77 77 80 81 82 88 89 89
99 100 101 100 103 101 104 107 104 108 103 106 105 103 103 103 101 99 101 92 98 93 94 86 88 88 84 85 88 86 86 87 85 84 83 81 78 77 80 80 81 83 81 82 86 92 91
103 108 105 110 112 111 114 116 116 117 114 110 111 110 107 108 105 100 101 101 94 96 94 89 86 88 87 84 86 87 86 85 88 88 86 84 80 78 81 80 80 84 84 83 85 94 95
121 116 115 118 120 123 123 126 124 129 125 122 118 114 113 112 115 108 107 110 104 99 96 96 86 86 88 88 87 86 85 87 86 85 84 83 81 83 83 80 78 80 82 84 92 94 94
125 124 123 123 125 131 129 126 127 127 129 131 122 116 116 118 116 115 117 116 114 108 102 97 96 88 86 87 84 83 82 83 84 82 80 80 82 86 82 82 82 84 86 88 91 98 97
131 126 124 124 125 127 128 131 128 125 126 122 125 122 121 121 119 121 125 118 120 115 108 103 101 95 91 80 85 88 86 84 81 79 78 78 81 79 82 82 83 87 86 88 87 96 99
126 129 129 129 132 126 127 123 121 120 114 118 119 126 125 125 123 119 119 119 122 118 116 102 102 97 96 85 80 88 86 81 81 81 80 77 87 83 81 83 87 84 90 93 96 97 97
127 126 126 126 125 121 116 111 104 105 103 99 103 104 108 113 115 116 119 121 121 119 117 107 102 96 96 90 87 88 89 86 86 85 82 84 88 89 87 90 92 91 96 97 100 101 97
126 125 122 120 114 108 99 92 87 84 81 80 82 85 87 93 102 105 111 112 112 118 114 105 103 98 95 96 92 94 89 90 90 87 85 88 90 89 94 95 95 96 97 100 100 100 98
120 112 108 102 95 89 82 75 72 72 71 70 72 75 79 84 83 91 97 99 105 107 110 105 100 100 100 98 95 95 95 92 89 90 90 91 93 95 96 96 99 100 101 101 98 100 95
102 98 90 83 75 70 68 67 63 62 61 63 67 66 69 71 70 78 83 87 90 89 101 102 103 101 98 97 99 96 96 94 90 92 94 91 94 95 95 98 98 99 102 100 99 96 93
90 84 78 72 65 63 62 62 56 52 54 56 56 57 58 58 63 66 69 70 74 79 86 92 97 99 97 99 100 97 97 94 93 92 91 90 91 94 94 97 94 92 94 93 97 92 84
81 76 70 64 60 57 55 54 50 50 52 49 50 49 52 53 55 57 60 61 65 68 75 87 91 95 91 98 98 96 95 94 93 91 89 87 87 92 99 96 93 89 89 88 88 84 75
75 70 63 59 56 52 51 50 46 45 45 45 46 44 48 49 48 49 50 50 52 54 60 67 76 81 85 86 89 89 88 82 83 82 81 83 86 84 84 85 86 86 85 80 79 79 73
72 67 60 56 53 49 47 45 42 42 42 42 43 42 42 41 39 42 41 40 42 48 45 48 55 59 63 69 73 70 69 70 74 77 77 78 77 74 77 83 84 81 78 77 77 69 61
68 64 58 54 51 46 45 42 40 39 40 40 40 41 40 35 32 36 34 37 38 39 45 47 47 51 56 59 63 65 64 66 64 68 69 72 69 66 65 68 74 76 75 72 64 57 51
65 60 56 51 49 45 42 39 37 38 38 39 39 38 37 33 32 36 36 41 44 46 45 46 46 48 52 54 56 56 58 61 64 66 63 62 62 62 64 70 74 75 70 61 56 47 45
63 58 54 50 45 43 40 37 35 36 35 36 38 35 35 32 33 39 41 43 46 50 52 52 49 48 54 58 59 60 59 61 62 60 61 62 64 66 64 67 68 57 55 55 49 43 40
60 56 52 46 41 39 37 34 33 34 33 34 35 33 33 35 39 35 39 44 46 47 48 45 50 55 57 60 59 61 64 65 64 63 63 63 65 61 61 58 52 41 52 54 44 41 41
58 55 50 44 40 36 35 34 33 32 32 34 33 31 34 35 39 42 45 45 45 46 48 50 53 56 59 63 64 63 64 64 63 64 59 61 56 53 56 52 42 41 48 50 41 41 40
56 53 47 42 38 35 35 34 32 32 33 32 31 31 33 37 40 46 46 44 48 53 56 56 57 57 57 57 56 58 60 61 61 58 58 53 49 47 46 43 41 40 46 45 42 42 42
54 51 46 41 37 35 35 34 34 33 33 32 31 30 34 36 40 42 44 48 49 51 53 51 49 49 51 53 55 56 58 58 54 51 49 48 46 41 40 38 36 42 41 38 38 40 41
52 50 44 40 37 36 36 35 34 33 31 30 29 30 31 33 35 39 39 37 38 39 41 44 46 49 51 51 50 50 50 48 42 44 45 39 39 39 37 34 34 34 33 32 34 37 42
52 48 44 40 38 37 36 34 34 34 31 30 31 32 31 31 31 34 36 38 40 42 42 44 44 44 45 47 45 44 45 39 40 43 40 37 34 34 32 31 29 29 28 32 33 36 42
51 48 44 40 39 36 36 36 36 34 31 32 31 30 30 30 33 35 36 36 38 39 39 39 40 41 42 42 40 40 41 35 41 41 35 34 32 29 27 23 21 22 27 30 32 37 41
51 48 45 42 39 36 37 37 35 34 34 32 30 30 31 30 31 33 35 37 35 36 38 38 39 39 40 39 39 39 39 34 40 38 32 31 28 24 23 18 18 20 23 25 30 36 43
Wind_Direction
272 269 270 269 271 271 271 271 270 269 268 269 271 264 265 267 267 266 269 268 264 265 265 266 267 269 271 269 268 270 273 274 273 272 271 271 273 274 275 275 277 278 278 281 279 278 277
273 272 271 267 265 267 267 267 267 267 271 271 268 268 263 267 267 265 268 266 266 268 267 268 266 269 270 269 269 271 269 270 272 271 270 270 271 272 274 277 275 278 280 279 279 278 279
273 272 268 266 267 268 267 265 268 267 270 269 270 268 263 262 264 267 266 266 264 268 268 268 269 267 268 266 266 267 269 270 271 272 271 271 271 270 272 276 279 278 278 278 278 279 280
273 272 271 270 268 268 268 266 266 264 268 267 266 265 265 265 262 265 266 267 266 266 265 266 267 265 264 264 265 264 268 269 270 272 271 272 273 272 270 270 272 276 278 282 280 280 282
274 272 273 270 270 269 270 272 267 264 269 267 265 264 265 265 263 262 264 267 267 267 266 264 264 263 261 265 265 266 265 267 269 270 271 271 273 272 269 270 271 274 276 279 282 280 280
277 278 276 275 276 274 272 272 274 266 267 268 261 261 263 266 264 264 266 262 263 265 264 263 261 261 260 261 264 264 265 265 266 268 269 269 269 270 270 270 273 274 275 279 280 279 281
280 277 274 277 275 274 274 273 270 271 268 264 265 259 261 262 261 261 265 268 260 259 261 261 260 261 262 259 262 263 264 265 265 267 267 269 269 268 268 270 270 271 274 277 277 278 281
280 278 273 273 274 273 271 270 269 270 267 266 265 263 262 261 259 260 262 264 264 262 261 261 262 260 259 262 260 264 264 264 264 262 264 266 266 267 269 268 269 270 271 273 276 278 279
277 277 276 275 272 271 271 271 270 270 268 270 266 264 264 260 259 258 262 260 262 262 259 263 264 263 260 259 261 260 260 260 263 261 263 264 266 269 269 270 270 271 272 275 276 278 280
276 277 276 277 275 276 276 276 275 273 270 270 266 265 262 261 262 259 257 260 260 260 261 258 261 262 265 260 261 262 263 264 262 263 261 264 266 268 269 270 270 272 272 275 277 278 280
277 277 278 277 276 279 278 278 277 275 272 267 264 264 261 257 257 256 255 258 257 258 258 258 258 259 264 262 261 260 261 263 266 264 265 265 268 269 271 270 272 273 274 276 277 280 283
277 279 280 280 280 279 279 276 275 272 271 268 263 261 258 256 255 254 254 254 252 255 258 256 257 258 260 261 261 261 262 263 265 267 268 269 268 270 271 272 273 276 278 278 281 283 284
278 279 279 279 279 278 276 274 273 271 267 265 261 259 258 256 257 257 256 255 252 253 255 254 255 257 259 260 260 262 264 264 266 267 269 271 271 271 274 276 277 277 279 280 281 284 288
278 279 278 276 274 274 274 272 270 267 264 262 261 259 257 261 259 257 257 256 256 253 254 254 255 257 256 256 259 261 265 266 266 267 268 271 274 274 275 277 278 278 279 280 281 283 285
275 274 274 273 273 272 271 270 267 265 262 262 263 263 262 258 256 255 256 255 253 250 250 248 250 253 254 256 259 261 262 262 264 266 269 271 274 275 275 278 278 278 279 279 280 283 285
270 271 272 272 272 271 269 265 262 258 259 260 260 257 258 256 253 252 251 250 251 250 248 247 248 253 254 254 256 260 262 264 266 269 270 270 270 272 276 277 275 273 273 275 279 281 281
268 268 269 270 270 268 265 261 259 255 257 255 254 254 255 257 257 251 247 244 243 245 245 248 250 251 253 253 256 259 261 264 266 266 265 266 269 270 270 272 273 274 275 276 277 279 283
263 264 265 266 265 264 262 260 257 254 252 250 248 248 249 250 251 247 243 236 233 236 239 244 247 249 251 254 257 259 259 261 259 261 263 265 264 264 265 269 272 272 272 272 273 276 279
259 261 261 262 261 260 260 256 253 250 249 244 243 238 244 239 241 236 222 220 220 217 222 234 237 241 246 251 257 261 261 261 263 263 265 265 267 265 265 268 272 276 276 274 276 276 273
256 255 257 258 257 257 255 253 252 250 244 241 243 241 239 233 229 224 216 213 214 220 230 235 241 250 254 257 258 262 267 265 265 270 266 267 269 269 269 270 271 274 276 278 272 267 259
250 251 250 251 252 251 251 248 249 247 241 236 237 238 232 226 222 223 224 222 220 225 230 238 249 241 246 249 254 263 266 271 273 271 273 274 275 274 271 270 274 276 275 270 261 255 250
244 247 248 249 249 246 245 247 243 239 237 237 237 231 227 221 219 224 225 229 233 237 241 243 237 242 252 255 264 266 269 275 274 271 271 272 275 276 278 276 271 270 266 261 258 249 242
237 240 242 243 243 240 242 240 240 239 236 234 234 230 227 222 216 216 223 230 236 239 238 243 244 249 254 259 265 270 271 271 271 273 275 277 278 280 277 274 271 263 258 260 254 243 240
231 234 236 237 237 235 236 238 237 233 233 234 232 228 225 223 220 220 227 232 235 235 239 245 253 257 262 266 266 267 268 271 274 277 278 280 280 277 274 272 269 263 256 252 245 237 229
225 227 228 229 230 229 231 232 229 228 228 228 228 225 223 224 224 227 229 232 237 242 245 251 254 255 259 263 266 268 269 269 273 278 279 278 278 278 275 271 264 255 250 245 238 232 225
220 222 222 222 223 224 226 229 227 225 225 221 220 221 223 225 226 229 233 238 242 246 251 254 260 263 267 264 265 267 270 276 280 282 278 281 283 281 275 270 263 260 253 241 233 227 222
215 217 217 217 219 221 222 224 223 222 222 219 220 223 225 227 227 231 235 240 246 250 254 258 258 260 263 266 269 274 276 280 282 280 282 284 281 279 275 270 267 259 247 237 227 219 219
210 211 213 214 217 218 219 220 220 220 220 221 223 224 228 228 230 234 240 246 249 252 255 258 260 261 265 269 273 276 280 284 282 282 288 286 283 279 271 264 252 248 240 234 224 215 216
206 208 209 211 214 214 216 217 218 218 221 223 226 228 232 235 237 241 243 247 252 253 254 257 261 267 270 274 276 279 280 284 282 285 285 282 279 272 263 252 245 242 239 237 225 221 215